Regional Weather Roundup
Issued by NWS

Home | Current Version | Previous Version | Text Only | Print | Product List | Glossary Off
Versions: 1 2 3 4 5 6 7 8 9 10 11 12 13 14 15 16 17 18 19 20 21 22 23 24 25 26 27 28 29 30 31 32 33 34 35 36 37 38 39 40 41 42 43 44 45 46 47 48 49 50

000
ASUS43 KFSD 211902
RWRSD

WEATHER ROUNDUP FOR SOUTH DAKOTA
NATIONAL WEATHER SERVICE SIOUX FALLS SD
200 PM CDT THU AUG 21 2014

NOTE: "FAIR" INDICATES FEW OR NO CLOUDS BELOW 12,000 FEET WITH NO
SIGNIFICANT WEATHER AND/OR OBSTRUCTIONS TO VISIBILITY.


SDZ001>005-009-010-012>017-212000-
NORTHWEST AND NORTH CENTRAL SOUTH DAKOTA

CITY           SKY/WX    TMP DP  RH WIND       PRES   REMARKS
BUFFALO          N/A     78  55  44 N9        29.89F
FAITH            N/A     82  57  42 N9        29.92S
MOBRIDGE       SUNNY     81  65  58 N13       29.84S
$$

SDZ012>016-024>037-041>051-057-063-072>074-212000-
SOUTHWEST AND SOUTH CENTRAL SOUTH DAKOTA

CITY           SKY/WX    TMP DP  RH WIND       PRES   REMARKS
RAPID CTY ARPT MOSUNNY   80  55  42 E6        29.98R
PIERRE         SUNNY     82  63  52 N9        29.85S
CUSTER         CLOUDY    75  52  44 VRB6      30.08F
ELLSWORTH AFB  MOSUNNY   80  53  39 VRB3      29.97S
PHILIP         SUNNY     87  54  32 N8        29.90S
PINE RIDGE     MOSUNNY   82  54  37 N5        29.98S
WINNER         FAIR      86  63  45 NW13G21   29.88R
$$

SDZ004>011-016>023-039-040-212000-
NORTHEAST SOUTH DAKOTA

CITY           SKY/WX    TMP DP  RH WIND       PRES   REMARKS
ABERDEEN       PTSUNNY   83  69  62 NW10      29.79S
WATERTOWN      MOSUNNY   80  69  69 W15       29.81R
SISSETON         N/A     81  71  71 N7        29.76R
$$

SDZ017-020-022-023-036>040-048>070-212000-
SOUTHEAST SOUTH DAKOTA

CITY           SKY/WX    TMP DP  RH WIND       PRES   REMARKS
SIOUX FALLS    PTSUNNY   87  76  69 W7        29.78S HX  97
HURON          MOSUNNY   85  66  53 NW14      29.80R
CHAMBERLAIN    SUNNY     81  67  62 N9G16     29.85S
MITCHELL       MOSUNNY   85  70  60 NW10      29.81R
YANKTON        MOSUNNY   84  75  74 W12       29.79R
$$

ABBREVIATIONS USED IN REMARKS
   TC - TEMPERATURE IN CELSIUS
  WCI - WIND CHILL INDEX
   HX - HEAT INDEX
  VSB - VISIBILITY




USA.gov is the U.S. government's official web portal to all federal, state and local government web resources and services.